TimeCST,TemperatureF,Dew PointF,Humidity,Sea Level PressureIn,VisibilityMPH,Wind Direction,Wind SpeedMPH,Gust SpeedMPH,PrecipitationIn,Events,Conditions,WindDirDegrees,DateUTC
12:00 AM,39,34,75,29.96,,WNW,10.4,,,,,300,2012-10-03 06:00:00
12:00 AM,39.2,33.8,81,29.96,-9999.0,WNW,10.4,-,N/A,,Unknown,300,2012-10-03 06:00:00
1:00 AM,40.1,34.9,82,29.96,-9999.0,WNW,6.9,-,N/A,,Unknown,290,2012-10-03 07:00:00
2:00 AM,39.4,35.4,86,29.99,-9999.0,NW,11.5,-,N/A,,Unknown,320,2012-10-03 08:00:00
3:00 AM,40.3,36.1,85,30.02,-9999.0,NNW,10.4,-,N/A,,Unknown,330,2012-10-03 09:00:00
5:00 AM,40.5,38.5,93,30.06,-9999.0,North,12.7,-,N/A,,Unknown,350,2012-10-03 11:00:00
6:00 AM,41,38,83,30.09,,North,9.2,,,,,10,2012-10-03 12:00:00
6:00 AM,40.8,37.6,88,30.09,-9999.0,North,9.2,-,N/A,,Unknown,10,2012-10-03 12:00:00
7:00 AM,40.1,37.8,91,30.12,-9999.0,North,12.7,-,N/A,,Unknown,360,2012-10-03 13:00:00
8:00 AM,40.5,36.3,85,30.16,-9999.0,North,15.0,20.7,N/A,,Unknown,10,2012-10-03 14:00:00
9:00 AM,41.5,35.6,79,30.12,-9999.0,NNE,19.6,27.6,N/A,,Unknown,20,2012-10-03 15:00:00
10:00 AM,41.0,31.6,69,30.23,-9999.0,NNE,17.3,23.0,N/A,,Unknown,30,2012-10-03 16:00:00
11:00 AM,41.9,31.8,67,30.24,-9999.0,NNE,19.6,25.3,N/A,,Unknown,30,2012-10-03 17:00:00
12:00 PM,43,33,58,30.23,,NNE,19.6,,,,,20,2012-10-03 18:00:00
12:00 PM,42.8,33.1,69,30.23,-9999.0,NNE,19.6,27.6,N/A,,Unknown,20,2012-10-03 18:00:00
1:00 PM,42.1,31.3,66,30.27,-9999.0,North,18.4,25.3,N/A,,Unknown,10,2012-10-03 19:00:00
2:00 PM,42.8,31.6,65,30.30,-9999.0,NNE,16.1,-,N/A,,Unknown,20,2012-10-03 20:00:00
3:00 PM,43.3,30.9,62,30.30,-9999.0,North,17.3,23.0,N/A,,Unknown,10,2012-10-03 21:00:00
4:00 PM,43.7,30.6,60,30.34,-9999.0,NNE,16.1,23.0,N/A,,Unknown,20,2012-10-03 22:00:00
5:00 PM,43.5,29.3,57,30.36,-9999.0,North,17.3,-,N/A,,Unknown,10,2012-10-03 23:00:00
6:00 PM,43,30,47,30.39,,North,17.3,,,,,10,2012-10-04 00:00:00
7:00 PM,40.8,28.6,62,30.41,-9999.0,North,13.8,-,N/A,,Unknown,10,2012-10-04 01:00:00
9:00 PM,37.9,28.2,68,30.46,-9999.0,North,10.4,-,N/A,,Unknown,10,2012-10-04 03:00:00
10:00 PM,36.5,28.2,72,30.46,-9999.0,North,9.2,-,N/A,,Unknown,360,2012-10-04 04:00:00
11:00 PM,36.0,28.0,73,30.47,-9999.0,North,9.2,-,N/A,,Unknown,360,2012-10-04 05:00:00